Time,TemperatureF,DewpointF,PressureIn,WindDirection,WindDirectionDegrees,WindSpeedMPH,WindSpeedGustMPH,Humidity,HourlyPrecipIn,Conditions,Clouds,dailyrainin,SoftwareType,DateUTC
2013-08-29 00:01:00,67.8,67.5,29.94,North,0,2.3,0.0,99,0.00,CLR,,0.00,WeatherDisplay:10.37,2013-08-29 04:01:00,
2013-08-29 00:02:00,67.8,67.5,29.94,North,0,2.3,0.0,99,0.00,CLR,,0.00,WeatherDisplay:10.37,2013-08-29 04:02:00,
2013-08-29 00:07:00,67.8,67.5,29.95,North,0,1.2,0.0,99,0.00,CLR,,0.00,WeatherDisplay:10.37,2013-08-29 04:07:00,
2013-08-29 00:12:00,67.6,67.3,29.94,North,0,2.3,2.3,99,0.00,CLR,,0.00,WeatherDisplay:10.37,2013-08-29 04:12:00,
2013-08-29 00:17:00,67.5,67.2,29.94,North,0,2.3,0.0,99,0.00,CLR,,0.00,WeatherDisplay:10.37,2013-08-29 04:17:00,
2013-08-29 00:22:00,67.6,67.3,29.94,North,0,3.5,3.5,99,0.00,CLR,,0.00,WeatherDisplay:10.37,2013-08-29 04:22:00,
2013-08-29 00:27:00,67.6,67.3,29.94,North,0,3.5,3.5,99,0.00,CLR,,0.00,WeatherDisplay:10.37,2013-08-29 04:27:00,
2013-08-29 00:32:00,67.6,67.3,29.94,North,0,3.5,3.5,99,0.00,CLR,,0.00,WeatherDisplay:10.37,2013-08-29 04:32:00,
2013-08-29 00:37:00,67.6,67.3,29.95,North,0,2.3,2.3,99,0.00,CLR,,0.00,WeatherDisplay:10.37,2013-08-29 04:37:00,
2013-08-29 00:42:00,67.6,67.3,29.94,North,0,1.2,0.0,99,0.00,CLR,,0.00,WeatherDisplay:10.37,2013-08-29 04:42:00,
2013-08-29 00:47:00,67.5,67.2,29.94,North,0,1.2,0.0,99,0.00,CLR,,0.00,WeatherDisplay:10.37,2013-08-29 04:47:00,
2013-08-29 00:52:00,67.5,67.2,29.94,North,0,3.5,3.5,99,0.00,CLR,,0.00,WeatherDisplay:10.37,2013-08-29 04:52:00,
2013-08-29 00:57:00,67.5,67.2,29.95,North,0,2.3,2.3,99,0.00,CLR,,0.00,WeatherDisplay:10.37,2013-08-29 04:57:00,
2013-08-29 01:02:00,67.5,67.2,29.95,North,0,2.3,2.3,99,0.00,CLR,,0.00,WeatherDisplay:10.37,2013-08-29 05:02:00,
2013-08-29 01:07:00,67.5,67.2,29.95,North,0,2.3,2.3,99,0.00,CLR,,0.00,WeatherDisplay:10.37,2013-08-29 05:07:00,
2013-08-29 01:12:00,67.5,67.2,29.95,North,0,2.3,2.3,99,0.00,CLR,,0.00,WeatherDisplay:10.37,2013-08-29 05:12:00,
2013-08-29 01:17:00,67.5,67.2,29.95,NW,315,3.5,3.5,99,0.00,CLR,,0.00,WeatherDisplay:10.37,2013-08-29 05:17:00,
2013-08-29 01:22:00,67.5,67.2,29.95,North,0,2.3,2.3,99,0.00,CLR,,0.00,WeatherDisplay:10.37,2013-08-29 05:22:00,
2013-08-29 01:27:00,67.5,67.2,29.95,NE,45,1.2,0.0,99,0.00,CLR,,0.00,WeatherDisplay:10.37,2013-08-29 05:27:00,
2013-08-29 01:32:00,67.5,67.2,29.95,NE,45,1.2,1.2,99,0.00,CLR,,0.00,WeatherDisplay:10.37,2013-08-29 05:32:00,
2013-08-29 01:37:00,67.1,66.8,29.95,North,0,1.2,1.2,99,0.00,CLR,,0.00,WeatherDisplay:10.37,2013-08-29 05:37:00,
2013-08-29 01:42:00,67.1,66.8,29.95,North,0,0.0,0.0,99,0.00,CLR,,0.00,WeatherDisplay:10.37,2013-08-29 05:42:00,
2013-08-29 01:47:00,66.9,66.6,29.95,North,0,1.2,0.0,99,0.00,CLR,,0.00,WeatherDisplay:10.37,2013-08-29 05:47:00,
2013-08-29 01:52:00,66.9,66.6,29.95,North,0,1.2,1.2,99,0.00,CLR,,0.00,WeatherDisplay:10.37,2013-08-29 05:52:00,
2013-08-29 01:57:00,66.9,66.6,29.95,SE,135,1.2,0.0,99,0.00,CLR,,0.00,WeatherDisplay:10.37,2013-08-29 05:57:00,
2013-08-29 02:02:00,66.7,66.5,29.95,North,0,0.0,0.0,99,0.00,CLR,,0.00,WeatherDisplay:10.37,2013-08-29 06:02:00,
2013-08-29 02:07:00,66.7,66.5,29.95,North,0,0.0,0.0,99,0.00,CLR,,0.00,WeatherDisplay:10.37,2013-08-29 06:07:00,
2013-08-29 02:12:00,66.6,66.3,29.95,NW,315,2.3,2.3,99,0.00,CLR,,0.00,WeatherDisplay:10.37,2013-08-29 06:12:00,
2013-08-29 02:17:00,66.7,66.5,29.95,North,0,3.5,0.0,99,0.00,CLR,,0.00,WeatherDisplay:10.37,2013-08-29 06:17:00,
2013-08-29 02:22:00,66.7,66.5,29.95,NNE,22,1.2,1.2,99,0.00,CLR,,0.00,WeatherDisplay:10.37,2013-08-29 06:22:00,
2013-08-29 02:27:00,66.7,66.5,29.95,NE,45,1.2,0.0,99,0.00,CLR,,0.00,WeatherDisplay:10.37,2013-08-29 06:27:00,
2013-08-29 02:32:00,66.7,66.5,29.95,North,0,3.5,3.5,99,0.00,CLR,,0.00,WeatherDisplay:10.37,2013-08-29 06:32:00,
2013-08-29 02:37:00,66.7,66.5,29.95,North,0,2.3,2.3,99,0.00,CLR,,0.00,WeatherDisplay:10.37,2013-08-29 06:37:00,
2013-08-29 02:42:00,66.9,66.6,29.94,North,0,3.5,3.5,99,0.00,CLR,,0.00,WeatherDisplay:10.37,2013-08-29 06:42:00,
2013-08-29 02:47:00,66.7,66.5,29.95,North,0,1.2,0.0,99,0.00,CLR,,0.00,WeatherDisplay:10.37,2013-08-29 06:47:00,
2013-08-29 02:52:00,66.4,66.1,29.95,North,0,1.2,0.0,99,0.00,CLR,,0.00,WeatherDisplay:10.37,2013-08-29 06:52:00,
2013-08-29 02:57:00,66.7,66.5,29.95,NE,45,3.5,3.5,99,0.00,CLR,,0.00,WeatherDisplay:10.37,2013-08-29 06:57:00,
2013-08-29 03:02:00,66.6,66.3,29.95,NE,45,1.2,1.2,99,0.00,CLR,,0.00,WeatherDisplay:10.37,2013-08-29 07:02:00,
2013-08-29 03:07:00,66.6,66.3,29.95,NE,45,1.2,1.2,99,0.00,CLR,,0.00,WeatherDisplay:10.37,2013-08-29 07:07:00,
2013-08-29 03:12:00,66.4,66.1,29.94,North,0,2.3,2.3,99,0.00,CLR,,0.00,WeatherDisplay:10.37,2013-08-29 07:12:00,
2013-08-29 03:17:00,66.2,65.9,29.95,NE,45,1.2,1.2,99,0.00,CLR,,0.00,WeatherDisplay:10.37,2013-08-29 07:17:00,
2013-08-29 03:22:00,66.4,66.1,29.95,North,0,3.5,3.5,99,0.00,CLR,,0.00,WeatherDisplay:10.37,2013-08-29 07:22:00,
2013-08-29 03:27:00,66.4,66.1,29.95,North,0,4.6,4.6,99,0.00,CLR,,0.00,WeatherDisplay:10.37,2013-08-29 07:27:00,
2013-08-29 03:32:00,66.4,66.1,29.95,NNW,338,2.3,0.0,99,0.00,CLR,,0.00,WeatherDisplay:10.37,2013-08-29 07:32:00,
2013-08-29 03:37:00,66.2,65.9,29.95,North,0,3.5,0.0,99,0.00,CLR,,0.00,WeatherDisplay:10.37,2013-08-29 07:37:00,
2013-08-29 03:42:00,66.2,65.9,29.95,North,0,3.5,0.0,99,0.00,CLR,,0.00,WeatherDisplay:10.37,2013-08-29 07:42:00,
2013-08-29 03:47:00,66.2,65.9,29.95,North,0,2.3,2.3,99,0.00,CLR,,0.00,WeatherDisplay:10.37,2013-08-29 07:47:00,
2013-08-29 03:52:00,66.2,65.9,29.95,North,0,2.3,2.3,99,0.00,CLR,,0.00,WeatherDisplay:10.37,2013-08-29 07:52:00,
2013-08-29 03:57:00,66.2,65.9,29.95,NW,315,2.3,0.0,99,0.00,CLR,,0.00,WeatherDisplay:10.37,2013-08-29 07:57:00,
2013-08-29 04:02:00,66.2,65.9,29.95,NW,315,1.2,1.2,99,0.00,CLR,,0.00,WeatherDisplay:10.37,2013-08-29 08:02:00,
2013-08-29 04:07:00,66.2,65.9,29.95,NW,315,1.2,1.2,99,0.00,CLR,,0.00,WeatherDisplay:10.37,2013-08-29 08:07:00,
2013-08-29 04:12:00,66.0,65.7,29.95,East,90,0.0,0.0,99,0.00,CLR,,0.00,WeatherDisplay:10.37,2013-08-29 08:12:00,
2013-08-29 04:17:00,65.8,65.6,29.95,East,90,1.2,0.0,99,0.00,CLR,,0.00,WeatherDisplay:10.37,2013-08-29 08:17:00,
2013-08-29 04:22:00,65.8,65.6,29.95,East,90,0.0,0.0,99,0.00,CLR,,0.00,WeatherDisplay:10.37,2013-08-29 08:22:00,
2013-08-29 04:27:00,65.7,65.4,29.95,North,0,0.0,0.0,99,0.00,CLR,,0.00,WeatherDisplay:10.37,2013-08-29 08:27:00,
2013-08-29 04:32:00,65.7,65.4,29.95,North,0,1.2,0.0,99,0.00,CLR,,0.00,WeatherDisplay:10.37,2013-08-29 08:32:00,
2013-08-29 04:37:00,65.5,65.2,29.95,North,0,2.3,2.3,99,0.00,CLR,,0.00,WeatherDisplay:10.37,2013-08-29 08:37:00,
2013-08-29 04:42:00,65.5,65.2,29.95,North,0,2.3,2.3,99,0.00,CLR,,0.00,WeatherDisplay:10.37,2013-08-29 08:42:00,
2013-08-29 04:47:00,65.3,65.0,29.95,North,0,2.3,2.3,99,0.00,CLR,,0.00,WeatherDisplay:10.37,2013-08-29 08:47:00,
2013-08-29 04:52:00,65.3,65.0,29.96,North,0,3.5,3.5,99,0.00,CLR,,0.00,WeatherDisplay:10.37,2013-08-29 08:52:00,
2013-08-29 04:57:00,65.3,65.0,29.95,North,0,5.8,5.8,99,0.00,CLR,,0.00,WeatherDisplay:10.37,2013-08-29 08:57:00,
2013-08-29 05:02:00,65.3,65.0,29.96,North,0,3.5,3.5,99,0.00,CLR,,0.00,WeatherDisplay:10.37,2013-08-29 09:02:00,
2013-08-29 05:07:00,65.3,65.0,29.96,North,0,3.5,3.5,99,0.00,CLR,,0.00,WeatherDisplay:10.37,2013-08-29 09:07:00,
2013-08-29 05:12:00,65.3,65.0,29.97,North,0,3.5,3.5,99,0.00,CLR,,0.00,WeatherDisplay:10.37,2013-08-29 09:12:00,
2013-08-29 05:17:00,65.3,65.0,29.96,North,0,3.5,3.5,99,0.00,CLR,,0.00,WeatherDisplay:10.37,2013-08-29 09:17:00,
2013-08-29 05:22:00,65.3,65.0,29.97,NNW,338,3.5,3.5,99,0.00,CLR,,0.00,WeatherDisplay:10.37,2013-08-29 09:22:00,
2013-08-29 05:27:00,65.3,65.0,29.96,North,0,3.5,3.5,99,0.00,CLR,,0.00,WeatherDisplay:10.37,2013-08-29 09:27:00,
2013-08-29 05:32:00,65.3,65.0,29.96,North,0,3.5,3.5,99,0.00,CLR,,0.00,WeatherDisplay:10.37,2013-08-29 09:32:00,
2013-08-29 05:37:00,65.5,65.2,29.97,North,0,5.8,5.8,99,0.00,CLR,,0.00,WeatherDisplay:10.37,2013-08-29 09:37:00,
2013-08-29 05:42:00,65.5,65.2,29.96,North,0,4.6,4.6,99,0.00,CLR,,0.00,WeatherDisplay:10.37,2013-08-29 09:42:00,
2013-08-29 05:47:00,65.7,65.4,29.97,NE,45,6.0,6.0,99,0.00,CLR,,0.00,WeatherDisplay:10.37,2013-08-29 09:47:00,
2013-08-29 05:52:00,65.7,65.4,29.97,NE,45,5.8,5.8,99,0.00,CLR,,0.00,WeatherDisplay:10.37,2013-08-29 09:52:00,
2013-08-29 05:57:00,65.7,65.4,29.96,North,0,3.5,3.5,99,0.00,CLR,,0.00,WeatherDisplay:10.37,2013-08-29 09:57:00,
2013-08-29 06:02:00,65.7,65.4,29.96,North,0,3.5,3.5,99,0.00,CLR,,0.00,WeatherDisplay:10.37,2013-08-29 10:02:00,
2013-08-29 06:07:00,65.7,65.4,29.96,North,0,3.5,3.5,99,0.00,CLR,,0.00,WeatherDisplay:10.37,2013-08-29 10:07:00,
2013-08-29 06:12:00,65.7,65.4,29.97,North,0,3.5,3.5,99,0.00,CLR,,0.00,WeatherDisplay:10.37,2013-08-29 10:12:00,
2013-08-29 06:17:00,65.7,65.4,29.97,North,0,3.5,3.5,99,0.00,CLR,,0.00,WeatherDisplay:10.37,2013-08-29 10:17:00,
2013-08-29 06:22:00,65.7,65.4,29.97,North,0,3.5,3.5,99,0.00,CLR,,0.00,WeatherDisplay:10.37,2013-08-29 10:22:00,
2013-08-29 06:27:00,65.7,65.4,29.98,North,0,3.5,3.5,99,0.00,CLR,,0.00,WeatherDisplay:10.37,2013-08-29 10:27:00,
2013-08-29 06:32:00,65.5,65.2,29.97,NE,45,3.5,0.0,99,0.00,CLR,,0.00,WeatherDisplay:10.37,2013-08-29 10:32:00,
2013-08-29 06:37:00,65.7,65.4,29.98,North,0,3.5,3.5,99,0.00,CLR,,0.00,WeatherDisplay:10.37,2013-08-29 10:37:00,
2013-08-29 06:42:00,65.7,65.4,29.98,North,0,5.8,5.8,99,0.00,CLR,,0.00,WeatherDisplay:10.37,2013-08-29 10:42:00,
2013-08-29 06:47:00,65.7,65.4,29.99,North,0,5.8,5.8,99,0.00,CLR,,0.00,WeatherDisplay:10.37,2013-08-29 10:47:00,
2013-08-29 06:52:00,65.7,65.4,29.98,North,0,4.6,4.6,99,0.00,CLR,,0.00,WeatherDisplay:10.37,2013-08-29 10:52:00,
2013-08-29 06:57:00,65.5,65.2,29.99,NE,45,4.6,4.6,99,0.00,CLR,,0.00,WeatherDisplay:10.37,2013-08-29 10:57:00,
2013-08-29 07:02:00,65.5,65.2,29.99,North,0,3.5,3.5,99,0.00,CLR,,0.00,WeatherDisplay:10.37,2013-08-29 11:02:00,
2013-08-29 07:07:00,65.5,65.2,29.99,North,0,3.5,3.5,99,0.00,CLR,,0.00,WeatherDisplay:10.37,2013-08-29 11:07:00,
2013-08-29 07:12:00,65.7,65.4,29.99,North,0,3.5,3.5,99,0.00,CLR,,0.00,WeatherDisplay:10.37,2013-08-29 11:12:00,
2013-08-29 07:17:00,65.5,65.2,29.99,North,0,2.3,2.3,99,0.00,CLR,,0.00,WeatherDisplay:10.37,2013-08-29 11:17:00,
2013-08-29 07:22:00,65.5,65.2,30.00,North,0,2.3,2.3,99,0.00,CLR,,0.00,WeatherDisplay:10.37,2013-08-29 11:22:00,
2013-08-29 07:27:00,65.5,65.2,29.99,NNW,338,4.6,4.6,99,0.00,CLR,,0.00,WeatherDisplay:10.37,2013-08-29 11:27:00,
2013-08-29 07:32:00,65.7,65.4,30.00,North,0,3.5,3.5,99,0.00,CLR,,0.00,WeatherDisplay:10.37,2013-08-29 11:32:00,
2013-08-29 07:37:00,65.7,65.4,30.00,North,0,3.5,3.5,99,0.00,CLR,,0.00,WeatherDisplay:10.37,2013-08-29 11:37:00,
2013-08-29 07:42:00,65.7,65.4,30.00,North,0,3.5,3.5,99,0.00,CLR,,0.00,WeatherDisplay:10.37,2013-08-29 11:42:00,
2013-08-29 07:47:00,65.8,65.6,30.00,North,0,1.2,1.2,99,0.00,CLR,,0.00,WeatherDisplay:10.37,2013-08-29 11:47:00,
2013-08-29 07:52:00,65.8,65.6,30.00,North,0,2.3,2.3,99,0.00,CLR,,0.00,WeatherDisplay:10.37,2013-08-29 11:52:00,
2013-08-29 07:57:00,65.8,65.6,30.00,North,0,5.8,5.8,99,0.00,CLR,,0.00,WeatherDisplay:10.37,2013-08-29 11:57:00,
2013-08-29 08:02:00,65.8,65.6,30.01,North,0,3.5,3.5,99,0.00,CLR,,0.00,WeatherDisplay:10.37,2013-08-29 12:02:00,
2013-08-29 08:07:00,65.8,65.6,30.00,North,0,1.2,0.0,99,0.00,CLR,,0.00,WeatherDisplay:10.37,2013-08-29 12:07:00,
2013-08-29 08:12:00,66.0,65.7,30.00,North,0,1.2,0.0,99,0.00,CLR,,0.00,WeatherDisplay:10.37,2013-08-29 12:12:00,
2013-08-29 08:17:00,66.2,65.9,30.00,North,0,1.2,0.0,99,0.00,CLR,,0.00,WeatherDisplay:10.37,2013-08-29 12:17:00,
2013-08-29 08:22:00,66.4,66.1,30.00,NNW,338,3.5,3.5,99,0.00,CLR,,0.00,WeatherDisplay:10.37,2013-08-29 12:22:00,
2013-08-29 08:27:00,66.4,66.1,30.01,North,0,3.5,3.5,99,0.00,CLR,,0.00,WeatherDisplay:10.37,2013-08-29 12:27:00,
2013-08-29 08:32:00,66.6,66.3,30.01,WNW,292,3.5,3.5,99,0.00,CLR,,0.00,WeatherDisplay:10.37,2013-08-29 12:32:00,
2013-08-29 08:37:00,66.7,66.5,30.01,NNE,22,3.5,3.5,99,0.00,CLR,,0.00,WeatherDisplay:10.37,2013-08-29 12:37:00,
2013-08-29 08:42:00,66.9,66.6,30.01,North,0,2.3,2.3,99,0.00,CLR,,0.00,WeatherDisplay:10.37,2013-08-29 12:42:00,
2013-08-29 08:47:00,66.9,66.6,30.01,North,0,3.5,3.5,99,0.00,CLR,,0.00,WeatherDisplay:10.37,2013-08-29 12:47:00,
2013-08-29 08:52:00,66.7,66.5,30.01,North,0,5.8,5.8,99,0.00,CLR,,0.00,WeatherDisplay:10.37,2013-08-29 12:52:00,
2013-08-29 08:57:00,66.7,66.5,30.01,North,0,3.5,3.5,99,0.00,CLR,,0.00,WeatherDisplay:10.37,2013-08-29 12:57:00,
2013-08-29 09:02:00,66.7,66.5,30.01,North,0,3.5,3.5,99,0.00,CLR,,0.00,WeatherDisplay:10.37,2013-08-29 13:02:00,
2013-08-29 09:07:00,66.7,66.5,30.01,North,0,3.5,3.5,99,0.00,CLR,,0.00,WeatherDisplay:10.37,2013-08-29 13:07:00,
2013-08-29 09:12:00,67.5,67.2,30.01,North,0,2.3,2.3,99,0.00,CLR,,0.00,WeatherDisplay:10.37,2013-08-29 13:12:00,
2013-08-29 09:17:00,68.0,67.7,30.01,North,0,2.3,0.0,99,0.00,CLR,,0.00,WeatherDisplay:10.37,2013-08-29 13:17:00,
2013-08-29 09:22:00,68.9,68.6,30.00,North,0,1.2,0.0,99,0.00,CLR,,0.00,WeatherDisplay:10.37,2013-08-29 13:22:00,
2013-08-29 09:27:00,69.3,69.0,30.01,North,0,3.5,3.5,99,0.00,CLR,,0.00,WeatherDisplay:10.37,2013-08-29 13:27:00,
2013-08-29 09:32:00,69.6,69.3,30.00,North,0,4.6,4.6,99,0.00,CLR,,0.00,WeatherDisplay:10.37,2013-08-29 13:32:00,
2013-08-29 09:37:00,69.4,69.1,30.00,North,0,5.8,5.8,99,0.00,CLR,,0.00,WeatherDisplay:10.37,2013-08-29 13:37:00,
2013-08-29 09:42:00,69.1,68.8,30.00,NNE,22,6.9,6.9,99,0.00,CLR,,0.00,WeatherDisplay:10.37,2013-08-29 13:42:00,
2013-08-29 09:47:00,69.6,69.3,30.01,NE,45,4.6,4.6,99,0.00,CLR,,0.00,WeatherDisplay:10.37,2013-08-29 13:47:00,
2013-08-29 09:52:00,69.6,69.3,30.00,NE,45,4.6,4.6,99,0.00,CLR,,0.00,WeatherDisplay:10.37,2013-08-29 13:52:00,
2013-08-29 09:57:00,69.8,69.5,30.00,North,0,5.8,5.8,99,0.00,CLR,,0.00,WeatherDisplay:10.37,2013-08-29 13:57:00,
2013-08-29 10:02:00,70.0,69.7,30.00,NE,45,3.5,3.5,99,0.00,CLR,,0.00,WeatherDisplay:10.37,2013-08-29 14:02:00,
2013-08-29 10:08:00,70.7,70.4,30.00,NE,45,5.8,5.8,99,0.00,CLR,,0.00,WeatherDisplay:10.37,2013-08-29 14:08:00,
2013-08-29 10:13:00,71.2,70.9,30.00,North,0,6.9,6.9,99,0.00,CLR,,0.00,WeatherDisplay:10.37,2013-08-29 14:13:00,
2013-08-29 10:18:00,71.4,71.1,30.01,NE,45,1.2,0.0,99,0.00,CLR,,0.00,WeatherDisplay:10.37,2013-08-29 14:18:00,
2013-08-29 10:23:00,71.4,71.1,30.00,NE,45,1.2,0.0,99,0.00,CLR,,0.00,WeatherDisplay:10.37,2013-08-29 14:23:00,
2013-08-29 10:28:00,72.3,72.0,30.01,North,0,4.6,4.6,99,0.00,CLR,,0.00,WeatherDisplay:10.37,2013-08-29 14:28:00,
2013-08-29 10:33:00,73.0,72.7,30.00,North,0,5.8,5.8,99,0.00,CLR,,0.00,WeatherDisplay:10.37,2013-08-29 14:33:00,
2013-08-29 10:38:00,73.2,72.9,30.00,NE,45,6.9,6.9,99,0.00,CLR,,0.00,WeatherDisplay:10.37,2013-08-29 14:38:00,
2013-08-29 10:43:00,74.1,73.8,30.00,North,0,5.8,5.8,99,0.00,CLR,,0.00,WeatherDisplay:10.37,2013-08-29 14:43:00,
2013-08-29 10:48:00,74.5,74.2,30.00,NE,45,6.9,6.9,99,0.00,CLR,,0.00,WeatherDisplay:10.37,2013-08-29 14:48:00,
2013-08-29 10:53:00,74.7,74.4,30.01,North,0,6.9,6.9,99,0.00,CLR,,0.00,WeatherDisplay:10.37,2013-08-29 14:53:00,
2013-08-29 10:58:00,75.4,75.1,30.01,East,90,3.5,3.5,99,0.00,CLR,,0.00,WeatherDisplay:10.37,2013-08-29 14:58:00,
2013-08-29 11:03:00,75.7,75.4,30.01,NNW,338,4.6,4.6,99,0.00,CLR,,0.00,WeatherDisplay:10.37,2013-08-29 15:03:00,
2013-08-29 11:08:00,77.2,76.9,30.01,North,0,4.6,4.6,99,0.00,CLR,,0.00,WeatherDisplay:10.37,2013-08-29 15:08:00,
2013-08-29 11:13:00,77.7,77.4,30.01,NE,45,3.5,0.0,99,0.00,CLR,,0.00,WeatherDisplay:10.37,2013-08-29 15:13:00,
2013-08-29 11:18:00,78.6,78.3,30.01,North,0,4.6,4.6,99,0.00,CLR,,0.00,WeatherDisplay:10.37,2013-08-29 15:18:00,
2013-08-29 11:23:00,79.2,78.9,30.01,North,0,3.5,3.5,99,0.00,CLR,,0.00,WeatherDisplay:10.37,2013-08-29 15:23:00,
2013-08-29 11:28:00,79.9,79.6,30.01,North,0,3.5,3.5,99,0.00,CLR,,0.00,WeatherDisplay:10.37,2013-08-29 15:28:00,
2013-08-29 11:33:00,79.9,78.3,30.01,North,0,6.9,6.9,95,0.00,CLR,,0.00,WeatherDisplay:10.37,2013-08-29 15:33:00,
2013-08-29 11:38:00,80.1,77.9,30.01,North,0,5.8,5.8,93,0.00,CLR,,0.00,WeatherDisplay:10.37,2013-08-29 15:38:00,
2013-08-29 11:43:00,80.2,77.0,30.01,NE,45,8.1,8.1,90,0.00,CLR,,0.00,WeatherDisplay:10.37,2013-08-29 15:43:00,
2013-08-29 11:48:00,80.6,77.1,30.01,NE,45,5.8,5.8,89,0.00,CLR,,0.00,WeatherDisplay:10.37,2013-08-29 15:48:00,
2013-08-29 11:53:00,80.6,76.4,30.00,North,0,5.8,5.8,87,0.00,CLR,,0.00,WeatherDisplay:10.37,2013-08-29 15:53:00,
2013-08-29 11:58:00,80.6,76.0,30.01,NE,45,6.9,6.9,86,0.00,CLR,,0.00,WeatherDisplay:10.37,2013-08-29 15:58:00,
2013-08-29 12:03:00,80.6,76.4,30.01,NE,45,4.6,4.6,87,0.00,CLR,,0.00,WeatherDisplay:10.37,2013-08-29 16:03:00,
2013-08-29 12:08:00,81.3,76.0,30.01,NW,315,4.6,4.6,84,0.00,CLR,,0.00,WeatherDisplay:10.37,2013-08-29 16:08:00,
2013-08-29 12:13:00,81.9,76.2,30.01,NE,45,5.8,5.8,83,0.00,CLR,,0.00,WeatherDisplay:10.37,2013-08-29 16:13:00,
2013-08-29 12:18:00,82.0,76.0,30.01,NE,45,5.8,5.8,82,0.00,CLR,,0.00,WeatherDisplay:10.37,2013-08-29 16:18:00,
2013-08-29 12:23:00,82.4,76.3,30.01,North,0,4.6,4.6,82,0.00,CLR,,0.00,WeatherDisplay:10.37,2013-08-29 16:23:00,
2013-08-29 12:28:00,82.8,77.8,30.00,NE,45,1.2,0.0,85,0.00,CLR,,0.00,WeatherDisplay:10.37,2013-08-29 16:28:00,
2013-08-29 12:33:00,84.0,78.7,30.00,SE,135,1.2,0.0,84,0.00,CLR,,0.00,WeatherDisplay:10.37,2013-08-29 16:33:00,
2013-08-29 12:38:00,85.1,79.0,30.00,North,0,1.2,1.2,82,0.00,CLR,,0.00,WeatherDisplay:10.37,2013-08-29 16:38:00,
2013-08-29 12:43:00,84.9,77.3,30.00,North,0,6.9,6.9,78,0.00,CLR,,0.00,WeatherDisplay:10.37,2013-08-29 16:43:00,
2013-08-29 12:48:00,84.7,77.5,30.00,East,90,2.3,2.3,79,0.00,CLR,,0.00,WeatherDisplay:10.37,2013-08-29 16:48:00,
2013-08-29 12:53:00,85.5,78.2,30.00,NE,45,3.5,0.0,79,0.00,CLR,,0.00,WeatherDisplay:10.37,2013-08-29 16:53:00,
2013-08-29 12:58:00,85.6,76.8,29.99,NW,315,5.8,5.8,75,0.00,CLR,,0.00,WeatherDisplay:10.37,2013-08-29 16:58:00,
2013-08-29 13:03:00,85.5,76.6,29.99,North,0,4.6,4.6,75,0.00,CLR,,0.00,WeatherDisplay:10.37,2013-08-29 17:03:00,
2013-08-29 13:08:00,84.7,76.3,29.99,NW,315,6.9,6.9,76,0.00,CLR,,0.00,WeatherDisplay:10.37,2013-08-29 17:08:00,
2013-08-29 13:13:00,84.9,77.3,29.99,NE,45,3.5,3.5,78,0.00,CLR,,0.00,WeatherDisplay:10.37,2013-08-29 17:13:00,
2013-08-29 13:18:00,85.5,78.2,29.99,North,0,3.5,3.5,79,0.00,CLR,,0.00,WeatherDisplay:10.37,2013-08-29 17:18:00,
2013-08-29 13:23:00,86.5,78.9,29.99,NE,45,1.2,0.0,78,0.00,CLR,,0.00,WeatherDisplay:10.37,2013-08-29 17:23:00,
2013-08-29 13:28:00,86.4,76.7,29.98,North,0,8.1,8.1,73,0.00,CLR,,0.00,WeatherDisplay:10.37,2013-08-29 17:28:00,
2013-08-29 13:33:00,85.6,76.4,29.99,North,0,3.5,3.5,74,0.00,CLR,,0.00,WeatherDisplay:10.37,2013-08-29 17:33:00,
2013-08-29 13:38:00,86.5,78.1,29.99,SW,225,3.5,3.5,76,0.00,CLR,,0.00,WeatherDisplay:10.37,2013-08-29 17:38:00,
2013-08-29 13:43:00,87.1,77.4,29.98,NW,315,4.6,4.6,73,0.00,CLR,,0.00,WeatherDisplay:10.37,2013-08-29 17:43:00,
2013-08-29 13:48:00,86.4,76.3,29.99,NE,45,6.9,6.9,72,0.00,CLR,,0.00,WeatherDisplay:10.37,2013-08-29 17:48:00,
2013-08-29 13:53:00,86.0,76.7,29.98,SE,135,3.5,0.0,74,0.00,CLR,,0.00,WeatherDisplay:10.37,2013-08-29 17:53:00,
2013-08-29 13:58:00,86.5,77.3,29.98,North,0,4.6,4.6,74,0.00,CLR,,0.00,WeatherDisplay:10.37,2013-08-29 17:58:00,
2013-08-29 14:03:00,86.7,77.4,29.99,WNW,292,5.8,5.8,74,0.00,CLR,,0.00,WeatherDisplay:10.37,2013-08-29 18:03:00,
2013-08-29 14:08:00,86.5,76.4,29.99,North,0,5.8,5.8,72,0.00,CLR,,0.00,WeatherDisplay:10.37,2013-08-29 18:08:00,
2013-08-29 14:13:00,86.7,77.0,29.99,SE,135,1.2,0.0,73,0.00,CLR,,0.00,WeatherDisplay:10.37,2013-08-29 18:13:00,
2013-08-29 14:18:00,87.6,77.9,29.99,West,270,1.2,1.2,73,0.00,CLR,,0.00,WeatherDisplay:10.37,2013-08-29 18:18:00,
2013-08-29 14:23:00,87.8,77.2,29.99,NE,45,5.8,5.8,71,0.00,CLR,,0.00,WeatherDisplay:10.37,2013-08-29 18:23:00,
2013-08-29 14:28:00,87.6,76.6,29.98,NE,45,5.8,5.8,70,0.00,CLR,,0.00,WeatherDisplay:10.37,2013-08-29 18:28:00,
2013-08-29 14:33:00,87.6,76.2,29.98,North,0,6.9,6.9,69,0.00,CLR,,0.00,WeatherDisplay:10.37,2013-08-29 18:33:00,
2013-08-29 14:38:00,86.9,75.9,29.98,NNE,22,4.6,4.6,70,0.00,CLR,,0.00,WeatherDisplay:10.37,2013-08-29 18:38:00,
2013-08-29 14:43:00,86.9,75.9,29.98,NE,45,5.8,5.8,70,0.00,CLR,,0.00,WeatherDisplay:10.37,2013-08-29 18:43:00,
2013-08-29 14:48:00,87.6,76.2,29.97,NW,315,4.6,4.6,69,0.00,CLR,,0.00,WeatherDisplay:10.37,2013-08-29 18:48:00,
2013-08-29 14:53:00,87.8,75.9,29.98,North,0,5.8,5.8,68,0.00,CLR,,0.00,WeatherDisplay:10.37,2013-08-29 18:53:00,
2013-08-29 14:58:00,87.6,76.2,29.97,North,0,5.8,5.8,69,0.00,CLR,,0.00,WeatherDisplay:10.37,2013-08-29 18:58:00,
2013-08-29 15:03:00,88.0,76.5,29.97,NE,45,8.1,8.1,69,0.00,CLR,,0.00,WeatherDisplay:10.37,2013-08-29 19:03:00,
2013-08-29 15:08:00,87.8,76.4,29.97,North,0,8.1,8.1,69,0.00,CLR,,0.00,WeatherDisplay:10.37,2013-08-29 19:08:00,
2013-08-29 15:13:00,87.4,75.6,29.97,NW,315,6.9,6.9,68,0.00,CLR,,0.00,WeatherDisplay:10.37,2013-08-29 19:13:00,
2013-08-29 15:18:00,87.8,75.5,29.97,North,0,3.5,3.5,67,0.00,CLR,,0.00,WeatherDisplay:10.37,2013-08-29 19:18:00,
2013-08-29 15:23:00,88.5,76.2,29.97,North,0,3.5,3.5,67,0.00,CLR,,0.00,WeatherDisplay:10.37,2013-08-29 19:23:00,
2013-08-29 15:28:00,88.3,75.5,29.97,North,0,8.1,8.1,66,0.00,CLR,,0.00,WeatherDisplay:10.37,2013-08-29 19:28:00,
2013-08-29 15:33:00,88.0,75.6,29.97,North,0,5.8,5.8,67,0.00,CLR,,0.00,WeatherDisplay:10.37,2013-08-29 19:33:00,
2013-08-29 15:38:00,88.2,75.4,29.97,NW,315,3.5,0.0,66,0.00,CLR,,0.00,WeatherDisplay:10.37,2013-08-29 19:38:00,
2013-08-29 15:43:00,88.3,74.6,29.97,North,0,5.8,5.8,64,0.00,CLR,,0.00,WeatherDisplay:10.37,2013-08-29 19:43:00,
2013-08-29 15:48:00,87.4,75.6,29.97,North,0,5.8,5.8,68,0.00,CLR,,0.00,WeatherDisplay:10.37,2013-08-29 19:48:00,
2013-08-29 15:53:00,86.5,74.3,29.96,NW,315,6.9,6.9,67,0.00,CLR,,0.00,WeatherDisplay:10.37,2013-08-29 19:53:00,
2013-08-29 15:58:00,86.5,75.2,29.97,NW,315,4.6,4.6,69,0.00,CLR,,0.00,WeatherDisplay:10.37,2013-08-29 19:58:00,
2013-08-29 16:03:00,86.9,75.9,29.96,North,0,2.3,2.3,70,0.00,CLR,,0.00,WeatherDisplay:10.37,2013-08-29 20:03:00,
2013-08-29 16:08:00,88.3,76.4,29.96,NNW,338,2.3,6.0,68,0.00,CLR,,0.00,WeatherDisplay:10.37,2013-08-29 20:08:00,
2013-08-29 16:13:00,87.8,75.9,29.96,NW,315,8.1,8.1,68,0.00,CLR,,0.00,WeatherDisplay:10.37,2013-08-29 20:13:00,
2013-08-29 16:18:00,87.4,76.0,29.96,North,0,5.8,5.8,69,0.00,CLR,,0.00,WeatherDisplay:10.37,2013-08-29 20:18:00,
2013-08-29 16:23:00,87.6,76.2,29.96,North,0,3.5,3.8,69,0.00,CLR,,0.00,WeatherDisplay:10.37,2013-08-29 20:23:00,
2013-08-29 16:28:00,87.8,75.9,29.96,North,0,3.5,3.5,68,0.00,CLR,,0.00,WeatherDisplay:10.37,2013-08-29 20:28:00,
2013-08-29 16:33:00,88.0,75.2,29.96,North,0,5.8,5.8,66,0.00,CLR,,0.00,WeatherDisplay:10.37,2013-08-29 20:33:00,
2013-08-29 16:38:00,88.0,75.2,29.96,South,180,1.2,0.0,66,0.00,CLR,,0.00,WeatherDisplay:10.37,2013-08-29 20:38:00,
2013-08-29 16:43:00,88.9,76.5,29.95,NE,45,3.5,3.5,67,0.00,CLR,,0.00,WeatherDisplay:10.37,2013-08-29 20:43:00,
2013-08-29 16:48:00,88.7,75.9,29.95,North,0,4.6,4.6,66,0.00,CLR,,0.00,WeatherDisplay:10.37,2013-08-29 20:48:00,
2013-08-29 16:53:00,88.5,75.7,29.95,NE,45,5.8,5.8,66,0.00,CLR,,0.00,WeatherDisplay:10.37,2013-08-29 20:53:00,
2013-08-29 16:58:00,88.2,74.9,29.95,North,0,8.1,8.1,65,0.00,CLR,,0.00,WeatherDisplay:10.37,2013-08-29 20:58:00,
2013-08-29 17:03:00,88.0,75.6,29.95,NE,45,5.8,5.8,67,0.00,CLR,,0.00,WeatherDisplay:10.37,2013-08-29 21:03:00,
2013-08-29 17:08:00,87.8,75.9,29.95,North,0,5.8,5.8,68,0.00,CLR,,0.00,WeatherDisplay:10.37,2013-08-29 21:08:00,
2013-08-29 17:13:00,87.8,75.9,29.95,NE,45,3.5,3.5,68,0.00,CLR,,0.00,WeatherDisplay:10.37,2013-08-29 21:13:00,
2013-08-29 17:18:00,87.6,74.9,29.95,North,0,5.8,5.8,66,0.00,CLR,,0.00,WeatherDisplay:10.37,2013-08-29 21:18:00,
2013-08-29 17:23:00,87.4,75.1,29.95,NNE,22,5.8,5.8,67,0.00,CLR,,0.00,WeatherDisplay:10.37,2013-08-29 21:23:00,
2013-08-29 17:28:00,87.3,74.5,29.95,North,0,5.8,5.8,66,0.00,CLR,,0.00,WeatherDisplay:10.37,2013-08-29 21:28:00,
2013-08-29 17:33:00,87.3,75.0,29.95,NE,45,3.5,3.5,67,0.00,CLR,,0.00,WeatherDisplay:10.37,2013-08-29 21:33:00,
2013-08-29 17:38:00,87.4,75.1,29.95,North,0,2.3,2.3,67,0.00,CLR,,0.00,WeatherDisplay:10.37,2013-08-29 21:38:00,
2013-08-29 17:43:00,87.6,75.3,29.94,North,0,2.3,0.0,67,0.00,CLR,,0.00,WeatherDisplay:10.37,2013-08-29 21:43:00,
2013-08-29 17:48:00,87.8,75.5,29.95,North,0,4.5,4.5,67,0.00,CLR,,0.00,WeatherDisplay:10.37,2013-08-29 21:48:00,
2013-08-29 17:53:00,87.6,75.3,29.94,North,0,3.5,3.5,67,0.00,CLR,,0.00,WeatherDisplay:10.37,2013-08-29 21:53:00,
2013-08-29 17:58:00,87.6,75.3,29.94,NE,45,4.6,4.6,67,0.00,CLR,,0.00,WeatherDisplay:10.37,2013-08-29 21:58:00,
2013-08-29 18:03:00,87.6,75.3,29.94,NE,45,3.5,3.5,67,0.00,CLR,,0.00,WeatherDisplay:10.37,2013-08-29 22:03:00,
2013-08-29 18:08:00,88.0,75.6,29.94,North,0,3.5,0.0,67,0.00,CLR,,0.00,WeatherDisplay:10.37,2013-08-29 22:08:00,
2013-08-29 18:13:00,88.2,75.4,29.94,North,0,3.5,3.5,66,0.00,CLR,,0.00,WeatherDisplay:10.37,2013-08-29 22:13:00,
2013-08-29 18:18:00,88.0,75.2,29.95,NE,45,1.2,0.0,66,0.00,CLR,,0.00,WeatherDisplay:10.37,2013-08-29 22:18:00,
2013-08-29 18:23:00,88.2,75.8,29.94,North,0,1.2,0.0,67,0.00,CLR,,0.00,WeatherDisplay:10.37,2013-08-29 22:23:00,
2013-08-29 18:28:00,88.2,75.4,29.94,NE,45,1.2,1.2,66,0.00,CLR,,0.00,WeatherDisplay:10.37,2013-08-29 22:28:00,
2013-08-29 18:33:00,88.0,74.7,29.94,North,0,3.5,0.0,65,0.00,CLR,,0.00,WeatherDisplay:10.37,2013-08-29 22:33:00,
2013-08-29 18:38:00,87.6,74.9,29.94,North,0,1.2,0.0,66,0.00,CLR,,0.00,WeatherDisplay:10.37,2013-08-29 22:38:00,
2013-08-29 18:43:00,87.4,74.7,29.95,North,0,1.2,0.0,66,0.00,CLR,,0.00,WeatherDisplay:10.37,2013-08-29 22:43:00,
2013-08-29 18:48:00,87.6,75.7,29.94,North,0,1.2,0.0,68,0.00,CLR,,0.00,WeatherDisplay:10.37,2013-08-29 22:48:00,
2013-08-29 18:53:00,87.6,75.7,29.94,North,0,0.0,0.0,68,0.00,CLR,,0.00,WeatherDisplay:10.37,2013-08-29 22:53:00,
2013-08-29 18:58:00,87.6,76.2,29.94,North,0,0.0,0.0,69,0.00,CLR,,0.00,WeatherDisplay:10.37,2013-08-29 22:58:00,
2013-08-29 19:03:00,87.4,75.6,29.94,North,0,0.0,0.0,68,0.00,CLR,,0.00,WeatherDisplay:10.37,2013-08-29 23:03:00,
2013-08-29 19:08:00,87.4,75.6,29.94,North,0,0.0,0.0,68,0.00,CLR,,0.00,WeatherDisplay:10.37,2013-08-29 23:08:00,
2013-08-29 19:13:00,87.4,75.6,29.94,North,0,0.0,0.0,68,0.00,CLR,,0.00,WeatherDisplay:10.37,2013-08-29 23:13:00,
2013-08-29 19:18:00,87.8,76.8,29.94,North,0,0.0,0.0,70,0.00,CLR,,0.00,WeatherDisplay:10.37,2013-08-29 23:18:00,
2013-08-29 19:23:00,87.6,77.0,29.94,North,0,0.0,0.0,71,0.00,CLR,,0.00,WeatherDisplay:10.37,2013-08-29 23:23:00,
2013-08-29 19:28:00,87.6,77.5,29.94,North,0,0.0,0.0,72,0.00,CLR,,0.00,WeatherDisplay:10.37,2013-08-29 23:28:00,
2013-08-29 19:33:00,87.8,77.6,29.94,North,0,0.0,0.0,72,0.00,CLR,,0.00,WeatherDisplay:10.37,2013-08-29 23:33:00,
2013-08-29 19:38:00,88.0,78.2,29.94,North,0,0.0,0.0,73,0.00,CLR,,0.00,WeatherDisplay:10.37,2013-08-29 23:38:00,
2013-08-29 19:43:00,87.6,77.9,29.94,North,0,0.0,0.0,73,0.00,CLR,,0.00,WeatherDisplay:10.37,2013-08-29 23:43:00,
2013-08-29 19:48:00,86.9,77.2,29.94,North,0,0.0,0.0,73,0.00,CLR,,0.00,WeatherDisplay:10.37,2013-08-29 23:48:00,
2013-08-29 19:53:00,86.0,76.7,29.95,South,180,0.0,0.0,74,0.00,CLR,,0.00,WeatherDisplay:10.37,2013-08-29 23:53:00,
2013-08-29 19:58:00,85.3,76.0,29.95,South,180,0.0,0.0,74,0.00,CLR,,0.00,WeatherDisplay:10.37,2013-08-29 23:58:00,
2013-08-29 20:03:00,85.1,75.9,29.95,South,180,0.0,0.0,74,0.00,CLR,,0.00,WeatherDisplay:10.37,2013-08-30 00:03:00,
2013-08-29 20:08:00,84.0,76.0,29.95,South,180,0.0,0.0,77,0.00,CLR,,0.00,WeatherDisplay:10.37,2013-08-30 00:08:00,
2013-08-29 20:13:00,83.3,76.1,29.95,South,180,0.0,0.0,79,0.00,CLR,,0.00,WeatherDisplay:10.37,2013-08-30 00:13:00,
2013-08-29 20:18:00,82.4,75.2,29.95,South,180,0.0,0.0,79,0.00,CLR,,0.00,WeatherDisplay:10.37,2013-08-30 00:18:00,
2013-08-29 20:23:00,81.7,74.9,29.95,South,180,0.0,0.0,80,0.00,CLR,,0.00,WeatherDisplay:10.37,2013-08-30 00:23:00,
2013-08-29 20:28:00,81.1,74.8,29.95,South,180,0.0,0.0,81,0.00,CLR,,0.00,WeatherDisplay:10.37,2013-08-30 00:28:00,
2013-08-29 20:33:00,80.6,74.6,29.95,South,180,0.0,0.0,82,0.00,CLR,,0.00,WeatherDisplay:10.37,2013-08-30 00:33:00,
2013-08-29 20:38:00,80.2,75.0,29.95,South,180,0.0,0.0,84,0.00,CLR,,0.00,WeatherDisplay:10.37,2013-08-30 00:38:00,
2013-08-29 20:43:00,79.9,75.0,29.95,South,180,0.0,0.0,85,0.00,CLR,,0.00,WeatherDisplay:10.37,2013-08-30 00:43:00,
2013-08-29 20:48:00,79.3,74.8,29.95,South,180,0.0,0.0,86,0.00,CLR,,0.00,WeatherDisplay:10.37,2013-08-30 00:48:00,
2013-08-29 20:53:00,79.0,74.8,29.95,South,180,0.0,0.0,87,0.00,CLR,,0.00,WeatherDisplay:10.37,2013-08-30 00:53:00,
2013-08-29 20:59:00,78.8,74.9,29.95,South,180,0.0,0.0,88,0.00,CLR,,0.00,WeatherDisplay:10.37,2013-08-30 00:59:00,
2013-08-29 21:04:00,78.6,74.8,29.95,South,180,0.0,0.0,88,0.00,CLR,,0.00,WeatherDisplay:10.37,2013-08-30 01:04:00,
2013-08-29 21:09:00,77.9,74.7,29.95,South,180,0.0,0.0,90,0.00,CLR,,0.00,WeatherDisplay:10.37,2013-08-30 01:09:00,
2013-08-29 21:14:00,77.5,74.7,29.95,West,270,0.0,0.0,91,0.00,CLR,,0.00,WeatherDisplay:10.37,2013-08-30 01:14:00,
2013-08-29 21:19:00,77.2,74.7,29.95,West,270,0.0,0.0,92,0.00,CLR,,0.00,WeatherDisplay:10.37,2013-08-30 01:19:00,
2013-08-29 21:24:00,77.0,74.5,29.95,West,270,0.0,0.0,92,0.00,CLR,,0.00,WeatherDisplay:10.37,2013-08-30 01:24:00,
2013-08-29 21:29:00,76.6,74.5,29.95,West,270,0.0,0.0,93,0.00,CLR,,0.00,WeatherDisplay:10.37,2013-08-30 01:29:00,
2013-08-29 21:34:00,76.3,74.4,29.95,West,270,0.0,0.0,94,0.00,CLR,,0.00,WeatherDisplay:10.37,2013-08-30 01:34:00,
2013-08-29 21:39:00,75.9,74.1,29.95,West,270,0.0,0.0,94,0.00,CLR,,0.00,WeatherDisplay:10.37,2013-08-30 01:39:00,
2013-08-29 21:44:00,75.6,74.0,29.95,West,270,0.0,0.0,95,0.00,CLR,,0.00,WeatherDisplay:10.37,2013-08-30 01:44:00,
2013-08-29 21:49:00,75.4,73.8,29.95,West,270,0.0,0.0,95,0.00,CLR,,0.00,WeatherDisplay:10.37,2013-08-30 01:49:00,
2013-08-29 21:54:00,75.2,74.0,29.95,West,270,0.0,0.0,96,0.00,CLR,,0.00,WeatherDisplay:10.37,2013-08-30 01:54:00,
2013-08-29 21:59:00,75.0,73.8,29.95,West,270,0.0,0.0,96,0.00,CLR,,0.00,WeatherDisplay:10.37,2013-08-30 01:59:00,
2013-08-29 22:04:00,75.0,73.8,29.95,West,270,0.0,0.0,96,0.00,CLR,,0.00,WeatherDisplay:10.37,2013-08-30 02:04:00,
2013-08-29 22:09:00,74.5,73.6,29.94,SE,135,0.0,0.0,97,0.00,CLR,,0.00,WeatherDisplay:10.37,2013-08-30 02:09:00,
2013-08-29 22:14:00,74.1,73.5,29.95,SE,135,0.0,0.0,98,0.00,CLR,,0.00,WeatherDisplay:10.37,2013-08-30 02:14:00,
2013-08-29 22:19:00,74.1,73.5,29.94,SE,135,0.0,0.0,98,0.00,CLR,,0.00,WeatherDisplay:10.37,2013-08-30 02:19:00,
2013-08-29 22:24:00,73.9,73.3,29.93,SE,135,0.0,0.0,98,0.00,CLR,,0.00,WeatherDisplay:10.37,2013-08-30 02:24:00,
2013-08-29 22:29:00,73.8,73.5,29.93,South,180,4.6,4.6,99,0.00,CLR,,0.00,WeatherDisplay:10.37,2013-08-30 02:29:00,
2013-08-29 22:34:00,73.6,73.3,29.93,South,180,1.2,0.0,99,0.00,CLR,,0.00,WeatherDisplay:10.37,2013-08-30 02:34:00,
2013-08-29 22:39:00,73.4,73.1,29.93,SW,225,1.2,0.0,99,0.00,CLR,,0.00,WeatherDisplay:10.37,2013-08-30 02:39:00,
2013-08-29 22:44:00,73.2,72.9,29.93,SW,225,0.0,0.0,99,0.00,CLR,,0.00,WeatherDisplay:10.37,2013-08-30 02:44:00,
2013-08-29 22:49:00,73.2,72.9,29.94,NE,45,1.2,0.0,99,0.00,CLR,,0.00,WeatherDisplay:10.37,2013-08-30 02:49:00,
2013-08-29 22:54:00,73.0,72.7,29.93,NE,45,0.0,0.0,99,0.00,CLR,,0.00,WeatherDisplay:10.37,2013-08-30 02:54:00,
2013-08-29 22:59:00,73.0,72.7,29.93,NE,45,0.0,0.0,99,0.00,CLR,,0.00,WeatherDisplay:10.37,2013-08-30 02:59:00,
2013-08-29 23:04:00,73.0,72.7,29.93,NE,45,0.0,0.0,99,0.00,CLR,,0.00,WeatherDisplay:10.37,2013-08-30 03:04:00,
2013-08-29 23:09:00,72.9,72.6,29.93,South,180,0.0,0.0,99,0.00,CLR,,0.00,WeatherDisplay:10.37,2013-08-30 03:09:00,
2013-08-29 23:14:00,72.7,72.4,29.93,South,180,0.0,0.0,99,0.00,CLR,,0.00,WeatherDisplay:10.37,2013-08-30 03:14:00,
2013-08-29 23:19:00,72.7,72.4,29.93,South,180,1.2,0.0,99,0.00,CLR,,0.00,WeatherDisplay:10.37,2013-08-30 03:19:00,
2013-08-29 23:24:00,72.5,72.2,29.92,West,270,0.0,0.0,99,0.00,CLR,,0.00,WeatherDisplay:10.37,2013-08-30 03:24:00,
2013-08-29 23:29:00,72.3,72.0,29.93,West,270,0.0,0.0,99,0.00,CLR,,0.00,WeatherDisplay:10.37,2013-08-30 03:29:00,
2013-08-29 23:34:00,72.3,72.0,29.92,South,180,0.0,0.0,99,0.00,CLR,,0.00,WeatherDisplay:10.37,2013-08-30 03:34:00,
2013-08-29 23:39:00,72.1,71.8,29.92,SW,225,1.2,0.0,99,0.00,CLR,,0.00,WeatherDisplay:10.37,2013-08-30 03:39:00,
2013-08-29 23:44:00,72.0,71.7,29.92,SE,135,0.0,0.0,99,0.00,CLR,,0.00,WeatherDisplay:10.37,2013-08-30 03:44:00,
2013-08-29 23:49:00,71.8,71.5,29.92,South,180,0.0,0.0,99,0.00,CLR,,0.00,WeatherDisplay:10.37,2013-08-30 03:49:00,
2013-08-29 23:54:00,71.8,71.5,29.93,SE,135,0.0,0.0,99,0.00,CLR,,0.00,WeatherDisplay:10.37,2013-08-30 03:54:00,
2013-08-29 23:59:00,71.6,71.3,29.92,SE,135,0.0,0.0,99,0.00,CLR,,0.00,WeatherDisplay:10.37,2013-08-30 03:59:00,